Regional Weather Roundup
Issued by NWS Pendleton, OR

Home | Current Version | Previous Version | Text Only | Print | Product List | Glossary On
Versions: 1 2 3 4 5 6 7 8 9 10 11 12 13 14 15 16 17 18 19 20 21 22 23 24 25 26 27 28 29 30 31 32 33 34 35 36 37 38 39 40 41 42 43 44 45 46 47 48 49 50
000
ASUS46 KPDT 260125
RWRPDT
PENDLETON REGIONAL WEATHER ROUNDUP
NATIONAL WEATHER SERVICE PENDLETON OREGON
500 PM PST THU DEC 25 2014

NOTE: FAIR INDICATES FEW OR NO CLOUDS BELOW 12,000 FEET WITH NO
SIGNIFICANT WEATHER AND/OR OBSTRUCTIONS TO VISIBILITY.

# INDICATES UNOFFICIAL STATION AND DATA

WAZ520-260210-
EAST SLOPES OF WASHINGTON CASCADES

CITY            SKY/WX      TMP DP  RH  WIND    PRES   REMARKS
#BULLFROG 2SW   N/A         34  29  82  CALM    27.72R
#BUMPING DAM    N/A         29  N/A N/A SW3     N/A
#CLE ELUM HS    N/A         36  26  67  W1      30.09R
#CLE ELUM 2NW   N/A         34  27  75  S1      N/A
#CLE ELUM LAKE  N/A         32  26  78  CALM    30.19R
#CLIFFDEL 2NW   N/A         32  23  69  N3      N/A
#GLENWOOD       N/A         33  29  85  CALM    30.19R
#MANASTASH CYN  N/A         31  20  63  CALM    30.07R
#NELSON         N/A         36  29  75  CALM    30.21R
#NELSON 3SW     N/A         32  24  72  CALM    30.39R
#NILE           N/A         35  26  69  N1      29.41R
#RONALD 2NW     N/A         34  28  78  NE1     29.98R
#SNOWDEN        N/A         35  22  59  W3      N/A
#TEANAWAY 4NE   N/A         37  28  70  CALM    N/A
#TROUT LAKE HS  N/A         38  32  79  SW6     N/A
#TROUT LAKE 1NE N/A         37  30  75  W6      30.19R
$$

WAZ521-260210-
SIMCOE HIGHLANDS

CITY            SKY/WX      TMP DP  RH  WIND    PRES   REMARKS
#BICKLETON HS   N/A         31  20  63  NW6     34.25S
#CENTERVILLE 1SWN/A         34  30  85  SW5     30.17R
#GOLDENDALE     N/A         40  31  70  W8      N/A
#GOLDENDALE 1NE N/A         38  27  64  SW1     N/A
#GOLDENDALE 1S  N/A         36  32  85  CALM    30.10
#GOLDENDALE 5WNWN/A         37  31  79  W3      30.18R
#GOODNOE HILLS  N/A         40  32  73  W17     N/A    WCI 31
#LYLE 6NE       N/A         38  33  82  W3      30.16R
$$

WAZ026-260210-
KITTITAS VALLEY

CITY            SKY/WX      TMP DP  RH  WIND    PRES   REMARKS
ELLENSBURG AP   CLEAR       38  25  59  N14     30.11R WCI 30
#ELLENSBURG CWU N/A         38  27  64  N10     30.11R
#ELLENSBURG 3NE N/A         36  28  72  N8      30.11R
#ELLENSBURG     N/A         40  30  67  NW2     N/A
#ELLENSBURG 1E  N/A         38  22  52  NW1     N/A
#KITTITAS 4N    N/A         36  26  67  W7      30.15R
#KITTITAS 3S    N/A         35  26  69  CALM    30.16R
#THORP 6N       N/A         35  28  75  W13     30.19R WCI 26
$$

WAZ027-260210-
YAKIMA VALLEY

CITY            SKY/WX      TMP DP  RH  WIND    PRES   REMARKS
YAKIMA AIRPORT  MOCLEAR     40  21  46  NW5     30.14R
YAKIMA-VAGABOND CLEAR       39  22  50  NW7     30.14R
#DONALD 2NE     N/A         43  17  35  S5      28.98R
#GRANDVIEW      N/A         41  26  55  CALM    30.18R
#MABTON         N/A         38  30  73  S2      30.13R
#NACHES 2SW     N/A         39  26  59  NW2     30.10R
#OUTLOOK DOT    N/A         N/A N/A N/A NW7     N/A
#SELAH 8E       N/A         37  20  50  W8      N/A
#TERRACE HTS    N/A         40  24  52  N5      30.14R
#WAPATO 4NE     N/A         43  17  35  S5      28.98R
#WEST VALLEY    N/A         42  25  51  N7      30.15R
#W YAKIMA       N/A         40  25  55  W2      30.17R
#WHITE SWAN 5E  N/A         40  28  62  CALM    30.16R
#WILEY CITY 3W  N/A         35  15  43  CALM    30.14R
$$

WAZ028-260210-
LOWER COLUMBIA BASIN...WASHINGTON

CITY            SKY/WX      TMP DP  RH  WIND    PRES   REMARKS
PASCO           MOCLDY      42  32  67  S5      30.15R
PROSSER AWOS    N/A         39  28  64  W5      30.18R
RICHLAND AWOS   CLOUDY      41  32  70  CALM    30.15R
#BASIN CITY 5SW N/A         41  33  73  SW5     30.14R
#BENTON CITY    N/A         44  32  62  CALM    30.06R
#CONNELL 5N     N/A         39  34  82  SW1     30.16R
#CONNELL 5NW    N/A         39  33  79  CALM    30.11R
#ELTOPIA        N/A         40  35  82  CALM    30.13R
#ELTOPIA 6NW    N/A         41  32  70  SW3     29.09R
#KAHLOTUS       N/A         39  31  73  W7      30.16R
#KENNEWICK      N/A         34  29  82  CALM    27.72R
#KENNEWICK 3S   N/A         40  32  73  CALM    30.16R
#PASCO-BROADMOORN/A         41  29  62  CALM    30.07R
#PATERSON       N/A         42  36  79  CALM    30.15R
#PROSSER        N/A         44  25  47  SW2     30.15R
#SAGEMOOR 2W    N/A         42  34  73  S2      30.00R
#TOUCHET 2S     N/A         38  32  79  CALM    30.14R
#WEST PASCO     N/A         41  31  67  CALM    30.17R
$$

WAZ029-260210-
FOOTHILLS OF THE BLUES...WASHINGTON

CITY            SKY/WX      TMP DP  RH  WIND    PRES   REMARKS
WALLA WALLA AP  CLEAR       38  32  79  S7      30.13R
#COLLEGE PLACE  N/A         41  31  67  SE5     30.16R
#DAYTON SCHOOL  N/A         36  25  64  CALM    30.13R
#LOWDEN 2SE     N/A         38  33  82  SE1     30.11R
#PLEASANT VIEW 1N/A         34  31  89  SW5     30.22R
#PRESCOTT       N/A         38  34  85  CALM    30.16R
#SUDBURY        N/A         37  N/A N/A CALM    N/A
#WHITMAN COLLEGEN/A         40  33  76  SE3     30.22R
#WAITSBURG 5S   N/A         34  31  89  SE7     30.27R
#WALLA WALLA 5E N/A         39  33  79  S7      N/A
#WALLA WALLA U  N/A         41  35  79  CALM    30.17R
#WHITMAN MISSIONN/A         37  32  82  E1      30.18R
$$

WAZ030-260210-
BLUE MOUNTAINS...WASHINGTON

CITY            SKY/WX      TMP DP  RH  WIND    PRES   REMARKS
#DIXIE 5SE      N/A         31  26  81  S3      30.01R
#SKI BLUEWOOD   N/A         20  18  92  CALM    30.10R
$$

ORZ009-041-WAZ024-260210-
COLUMBIA RIVER GORGE

CITY            SKY/WX      TMP DP  RH  WIND    PRES   REMARKS
HOOD RIVER AP   PTCLDY      45  36  70  NW9     30.20R
THE DALLES AP   MOCLDY      47  34  60  W14G26  30.18R WCI 41
#ARLINGTON AIRPON/A         41  34  76  W3      30.01S
#ARLINGTON HS   N/A         44  33  65  NW3     30.10R
#CELILO DOT     N/A         45  30  55  SW7     N/A
#LYLE           N/A         46  39  76  NW10    30.21R
#MARYHILL 2W    N/A         44  33  65  S12     N/A    WCI 38
#MOSIER 1S      N/A         42  30  62  CALM    30.18S
#MURDOCK        N/A         47  40  76  NW13    30.20R WCI 41
#RUFUS DOT      N/A         47  27  45  W16     N/A    WCI 41

$$

ORZ510-260210-
NORTH CENTRAL OREGON

CITY            SKY/WX      TMP DP  RH  WIND    PRES   REMARKS
#CHENOWITH 1W   N/A         38  34  85  NW26    N/A    WCI 27
#COW CYN RST AREN/A         34  28  78  SW1     N/A
#DUFUR 9E       N/A         37  31  79  W15     30.25R WCI 28
#GRASS VALLEY   N/A         35  31  85  W7      N/A
#GRASS VALLEY 1SN/A         35  30  82  NW7     30.23R
#KENT DOT       N/A         34  23  64  W14     N/A    WCI 25
#MAUPIN SCHOOL  N/A         42  31  65  CALM    30.17R
#MORO SCHOOL    N/A         38  34  85  W10     30.14R
#SHANIKO 5WSW   N/A         32  20  61  NW1     N/A
#SHANIKO 4NW    N/A         30  26  85  NW6     30.10R
#TYGH VALLEY 2NEN/A         44  32  62  N3      30.19R
#WAPANITIA AIRPON/A         39  31  73  NW3     30.21R
#WASCO DOT      N/A         40  29  64  W8      N/A
#WASCO AIRPORT  N/A         38  32  79  W10     N/A
#WASCO 5NE      N/A         37  32  82  SW1     30.18R
$$

ORZ511-260210-
CENTRAL OREGON

CITY            SKY/WX      TMP DP  RH  WIND    PRES   REMARKS
BEND AIRPORT    PTCLDY      32  25  75  NW3     30.15R
MADRAS AIRPORT  CLOUDY      34  28  78  MISG    30.17R
PRINEVILLE AP   CLOUDY      36  28  72  N5      30.14R
REDMOND AIRPORT MOCLDY      35  27  72  W3      30.13R
#BEND 1SW       N/A         31  27  85  NE1     N/A
#BEND-AWBREY    N/A         33  27  78  NW1     30.25R
#BEND-KIM LN    N/A         33  27  78  CALM    30.10R
#CROOKED RVR RANN/A         37  28  70  N20     30.23R WCI 27
#CULVER         N/A         35  28  75  CALM    30.11R
#LAKE BILLY CHINN/A         39   9  28  N5      30.21R
#POWELL BUTTE 3EN/A         35  26  69  NW6     N/A
#POWELL BUTTE   N/A         34  28  78  N2      29.75R
#PRINEVILLE 3N  N/A         36  30  79  N3      30.19R
#WARM SPRINGS   N/A         43  31  62  SW7     30.13R


ORZ509-260210-
EAST SLOPES OF OREGON CASCADES

CITY            SKY/WX      TMP DP  RH  WIND    PRES   REMARKS
#BLACK BUTTE RNCN/A         36  31  82  CALM    30.22S
#CAMP SHERMAN   N/A         37  29  72  CALM    30.24R
#LA PINE DOT    N/A         31  19  61  NW2     N/A
#LA PINE 4NW    N/A         31  23  72  CALM    30.26R
#LAVA BUTTE DOT N/A         28  20  71  NE1     N/A
#MT BACHELOR-MIDN/A         18  17  96  E13     N/A    WCI  5
#SISTERS AIRPOR N/A         36  30  79  N5      30.17S
#SISTERS ODOT   N/A         37  N/A N/A CALM    N/A
#SISTERS 1NW    N/A         36  25  64  N8      N/A
#SISTERS 3N     N/A         35  23  61  W3      30.13R
#SUNRIVER       N/A         30  27  88  CALM    30.15R
#TUMALO 3W      N/A         34  25  69  NW9     30.11R
#WANOGA BUTTE D N/A         26  15  63  NW2     N/A

$$

ORZ044-260210-
LOWER COLUMBIA BASIN...OREGON

CITY            SKY/WX      TMP DP  RH  WIND    PRES   REMARKS
HERMISTON       CLOUDY      38  33  82  CALM    30.14R
#BOARDMAN 3W    N/A         39  36  89  W2      29.88R
#BOARDMAN 8SW   N/A         41  35  79  SW5     30.16R
#ECHO 8SW       N/A         42  34  73  W5      30.11R
#IONE SCHOOL    N/A         41  30  65  S6      30.14R
#IRRIGON 4NW    N/A         42  38  86  E2      N/A
#UMATILLA SCHOOLN/A         39  39  100 CALM    30.18R
#UMATILLA       N/A         42  34  73  SE1     30.13R
$$

ORZ507-260210-
NORTHERN FOOTHILLS OF THE BLUES

CITY            SKY/WX      TMP DP  RH  WIND    PRES   REMARKS
PENDLETON AIRPT MOCLDY      38  32  79  SW7     30.12R
#ADAMS 3WNW     N/A         33  30  89  CALM    30.19R
#ATHENA         N/A         34  31  89  CALM    30.21R
#CAYUSE         N/A         37  32  82  SW3     30.18R
#HELIX SCHOOL   N/A         35  32  89  SE1     30.19R
#HELIX 3N       N/A         34  32  92  S5      30.08R
#HOLDMAN 5SE    N/A         38  34  85  SW1     30.12R
#HOLDMAN 6E     N/A         36  32  85  CALM    29.99R
#M-F GROVE ELEM N/A         36  29  75  CALM    30.12R
#M-FREEWATER 5SEN/A         36  31  82  CALM    30.13R
#PENDLETON DNTN N/A         38  26  62  CALM    28.94S
#PDT AQUATIC CTRN/A         39  29  67  CALM    30.14R
#PENDLETON 5NE  N/A         35  32  89  CALM    30.09R
#PDT SUNRIDGE   N/A         38  33  82  CALM    30.15R
#PENDLETON 7NW  N/A         37  31  79  SW2     25.96F
#PILOT ROCK     N/A         36  27  69  S2      30.14R
#TUTUILLA       N/A         36  32  85  S6      30.18R
#UMAPINE 2E     N/A         36  31  82  SE1     30.11R
#WESTON SCHOOL  N/A         36  29  75  SW2     30.10R

$$

ORZ508-260210-
SOUTHERN FOOTHILLS OF THE BLUES

CITY            SKY/WX      TMP DP  RH  WIND    PRES   REMARKS
LEXINGTON       CLEAR       37  32  82  CALM    30.16R
#AJAX           N/A         39  39  100 CALM    30.06R
#CONDON SCHOOL  N/A         33  28  82  CALM    30.07R
#CONDON 5W      N/A         30  25  81  W9      30.07R
#FOSSIL SCHOOL  N/A         35  30  82  CALM    30.09R
#HEPPNER EOC    N/A         36  31  82  SW3     30.16R
#HEPPNER 4NE    N/A         33  30  89  SW3     30.21R
#LEXINGTON 2SE  N/A         37  30  75  CALM    30.10R
#MIKKALO        N/A         38  28  67  W7      30.13R
#RUGGS 5NE      N/A         32  29  89  W3      30.27R
#RUGGS 2SW      N/A         33  29  85  SW7     30.23R

$$

ORZ502-503-260210-
BLUE MOUNTAINS

CITY            SKY/WX      TMP DP  RH  WIND    PRES   REMARKS
MEACHAM         CLOUDY      30  28  92  CALM    30.06R
#BATTLE MTN DOT N/A         28  28  100 CALM    N/A
#HARDMAN 10S    N/A         27  26  96  CALM    30.35R
#HEPPNER 15SE   N/A         28  26  92  CALM    29.96R
#LADD CYN SMT   N/A         31  21  66  NW6     N/A
#LADD CREEK ODOTN/A         33  16  49  NE3     N/A
#LONG CREEK HS  N/A         30  29  96  CALM    30.05R
#N POWDER DOT   N/A         33  24  69  N10     N/A
#PIKES PEAK     N/A         30  28  92  S13     27.99S WCI 20
#TOLLGATE       N/A         24  23  96  CALM    29.94R
#TROY SCHOOL    N/A         32  30  92  CALM    30.02R
#UKIAH          N/A         31  27  85  CALM    30.22S
#WESTON 4E      N/A         30  29  96  CALM    30.16R
$$

ORZ505-260210-
JOHN DAY BASIN

CITY            SKY/WX      TMP DP  RH  WIND    PRES   REMARKS
JOHN DAY        CLOUDY      32  28  85  W9      30.10R
#JOHN DAY KJDY  N/A         35  30  82  CALM    30.20F
#DAYVILLE SCHOOLN/A         32  29  89  CALM    30.16S
#MONUMENT HS    N/A         39  27  62  NE1     30.13R
#MT. VERNON 5SE N/A         29  25  85  CALM    30.03R
#WINLOCK        N/A         33  26  75  CALM    30.18R
$$

ORZ506-260210-
OCHOCO AND JOHN DAY HIGHLANDS

CITY            SKY/WX      TMP DP  RH  WIND    PRES   REMARKS
#BUCK CREEK DOT N/A         33  29  85  NW12    N/A    WCI 24
#HORSE RIDGE DO N/A         30  22  72  NW6     N/A
#KEYES SMT DOT  N/A         28  27  96  NW3     N/A
#PAULINA SCHOOL N/A         N/A N/A N/A W2      30.08R
#PRAIRIE CITY   N/A         28  24  85  W2      30.28R
#SENECA         N/A         26  N/A N/A N1      N/A
#SENECA 9NW     N/A         26  22  85  CALM    30.18R
$$

ORZ049-260210-
GRANDE RONDE VALLEY

CITY            SKY/WX      TMP DP  RH  WIND    PRES   REMARKS
LA GRANDE       CLOUDY      36  21  54  NW6     30.09R
#COVE           N/A         33  28  82  CALM    30.03S
#COVE SCHOOL    N/A         32  28  85  CALM    30.06R
#COVE 6NW       N/A         32  27  82  CALM    30.24R
#ELGIN 3N       N/A         30  19  63  CALM    29.82R
#ELGIN 1E       N/A         33  25  72  CALM    N/A
#ISLAND CITY 4N N/A         42  41  96  CALM    30.25R
#LADD CYN DOT   N/A         35  24  64  N6      N/A
#UNION 1S       N/A         34  28  78  CALM    30.11R
$$

ORZ050-260210-
WALLOWA COUNTY

CITY            SKY/WX      TMP DP  RH  WIND    PRES   REMARKS
JOSEPH AIRPORT  PTCLDY      19  18  96  CALM    30.05R
#ENTERPRISE AP  N/A         22  16  77  CALM    29.98R
#ENTERPRISE HS  N/A         21  17  84  CALM    30.06R
#IMNAHA SCHOOL  N/A         39  29  67  CALM    30.09R
#IMNAHA 10S     N/A         32  28  85  CALM    30.06R
#JOSEPH 3N      N/A         17  12  80  CALM    30.06R
#JOSEPH 3W      N/A         20  14  77  CALM    29.86R
#LOSTINE        N/A         21  17  84  CALM    30.01R
#MT HOWARD 8000 N/A         12  10  91  CALM    29.81R
#PROMISE 1S     N/A         29  23  78  E2      30.29R
#SHEEP RDG 7000 N/A         15  13  92  CALM    30.26R
#WALLOWA SCHOOL N/A         31  24  75  CALM    31.17R



$$



USA.gov is the U.S. government's official web portal to all federal, state and local government web resources and services.